Showing default

ASO-S, 54029

Orbit data source: Space-Track

ASO-S, 54029 is a payload satellite owned by CAS (CN) in SSO that was launched on Sat, 08 Oct 2022 UTC via a CHANG ZHENG 2D launch vehicle from the Jiuquan Satellite Launch Center, China (JSC). Payload-class satellites include a variety of spacecraft equipped with specific instruments for various scientific and technological missions. These include communications satellites like Starlink; space stations such as the ISS; scientific satellites like the Hubble; Earth observation satellites from companies like Planet Labs, Umbra, and HawkEye 360; GPS; miniature CubeSats for education and research; and military/defense satellites.

Loading next visibility...
Identifier
54029, 2022-129A
Orbit
SSO
Country
Flag of CNCN / PRC
Related business
Manufacturer
CAST
Mission
Operational Civil Astronomy
Bus & Motor
ASO-S, Unknown motor
Mass
888 kg wet, 888 kg dry
Launch date (UTC)
2022-10-08 (4 years ago)
Launch vehicle
CHANG ZHENG 2D
Launch site
Jiuquan Satellite Launch Center, China (JSC)
Object type
Payload
Rocket body
Debris
Shape & HBR
Box + 2 Pan, 1.8 m
Radar Cross Section
4.940 m², Large (>1 m²)

Expand to show TLE details & history
Last TLE update: 22 hours ago

TLE from 22 hours ago
0 ASO-S
1 54029U 22129A   26172.52611317  .00000140  00000-0  45552-4 0  9990
2 54029  98.2747 177.5445 0015749  80.5637 279.7338 14.52063397196057
Epoch: 2026-06-21T12:37Z
TLE epoch observation values (Epoch: 2026-06-21T12:37:36.177Z)
Latitude
-0.00005°
Longitude
78.41865°
Altitude
720.016 km
Speed
7.496 km/s
True Right ascension
11h 50m 10s
True Declination
0° 00' 00"
Sunlit
Object was in daylight at epoch
Visualization orbit readout
Latitude
Unknown
Longitude
Unknown
Altitude
Unknown
Speed
Unknown
Apparent Right ascension
Unknown
Apparent Declination
Unknown
Sunlit
N/A
Visualization observer readout
Local Sidereal Time
21:26:38
Azimuth
Unknown
Elevation
Unknown
Doppler factor
Unknown
Orbital elements
Apogee altitude
727.185 km
Perigee altitude
704.84 km
Semi-major axis
7,094.149 km
Eccentricity
0.00157
Inclination
98.2747°
RAAN
177.5445°
Arg. of periapsis
80.5637°
True anomaly
279.55587°
Mean anomaly
279.7338°
Eccentric anomaly
279.64484°
Mean motion
3.63239 °/min
Orbital period
99.11 mins
BSTAR
0.000045552
Loading maneuver chart data...
Computing Atmospheric mass density...
Loading historical data...
Loading historical data...
Loading historical data...
Loading historical data...
Loading historical data...
Loading historical data...
Loading historical data...
Other satellites on launch #129 in the year 2022 (2022-10-08 UTC)

Documentation

Showing up to 5 results
|